TimeEST,TemperatureF,Dew PointF,Humidity,Sea Level PressureIn,VisibilityMPH,Wind Direction,Wind SpeedMPH,Gust SpeedMPH,PrecipitationIn,Events,Conditions,WindDirDegrees,DateUTC
12:15 AM,49.8,31.3,49,29.95,10.0,Calm,Calm,-,N/A,Rain,Light Rain,0,2013-02-13 05:15:00
12:35 AM,50.7,32.7,50,29.96,10.0,SSW,3.5,-,N/A,Rain,Light Rain,200,2013-02-13 05:35:00
12:55 AM,48.6,33.6,56,29.96,10.0,West,3.5,-,N/A,Rain,Light Rain,270,2013-02-13 05:55:00
1:15 AM,46.6,36.9,69,29.90,10.0,North,4.6,-,N/A,,Scattered Clouds,10,2013-02-13 06:15:00
1:35 AM,46.8,36.9,68,29.91,10.0,Calm,Calm,-,N/A,,Mostly Cloudy,0,2013-02-13 06:35:00
1:55 AM,47.7,36.5,65,29.89,10.0,North,4.6,-,N/A,,Overcast,360,2013-02-13 06:55:00
2:15 AM,46.6,37.8,71,29.89,10.0,North,3.5,-,N/A,,Overcast,350,2013-02-13 07:15:00
2:35 AM,46.0,38.5,75,29.87,10.0,Calm,Calm,-,N/A,,Overcast,0,2013-02-13 07:35:00
2:55 AM,46.2,39.0,76,29.89,10.0,Calm,Calm,-,N/A,,Overcast,0,2013-02-13 07:55:00
3:15 AM,46.4,38.8,75,29.88,10.0,SSE,3.5,-,N/A,,Overcast,160,2013-02-13 08:15:00
3:35 AM,46.9,38.1,71,29.86,10.0,South,4.6,-,N/A,,Light Drizzle,170,2013-02-13 08:35:00
3:55 AM,46.4,38.5,74,29.84,10.0,Calm,Calm,-,N/A,Rain,Light Rain,0,2013-02-13 08:55:00
4:15 AM,45.3,40.5,83,29.85,10.0,Calm,Calm,-,N/A,,Drizzle,0,2013-02-13 09:15:00
4:35 AM,44.6,41.4,88,29.83,10.0,Calm,Calm,-,N/A,,Light Drizzle,0,2013-02-13 09:35:00
4:55 AM,44.6,41.5,89,29.81,10.0,Calm,Calm,-,0.01,Rain,Light Rain,0,2013-02-13 09:55:00
5:15 AM,45.0,41.0,86,29.82,10.0,SSW,3.5,-,N/A,Rain,Light Rain,200,2013-02-13 10:15:00
5:35 AM,44.8,40.3,84,29.82,7.0,Calm,Calm,-,N/A,Rain,Light Rain,0,2013-02-13 10:35:00
5:55 AM,44.2,40.3,86,29.82,10.0,South,3.5,-,0.01,Rain,Light Rain,190,2013-02-13 10:55:00
6:15 AM,43.7,39.9,87,29.81,10.0,Calm,Calm,-,0.01,Rain,Light Rain,0,2013-02-13 11:15:00
6:35 AM,43.3,40.3,89,29.84,7.0,Calm,Calm,-,0.02,Rain,Rain,0,2013-02-13 11:35:00
6:55 AM,43.0,40.5,91,29.84,7.0,SSW,4.6,-,0.03,Rain,Light Rain,210,2013-02-13 11:55:00
7:15 AM,42.8,40.6,92,29.82,7.0,South,4.6,-,0.02,Rain,Light Rain,170,2013-02-13 12:15:00
7:35 AM,42.8,41.0,93,29.84,5.0,SSW,6.9,-,0.02,Rain,Rain,200,2013-02-13 12:35:00
7:55 AM,42.8,41.0,93,29.84,5.0,SSW,4.6,-,0.03,Rain,Rain,210,2013-02-13 12:55:00
8:15 AM,42.8,41.0,93,29.83,4.0,Calm,Calm,-,0.01,Rain,Light Rain,0,2013-02-13 13:15:00
8:35 AM,42.8,41.2,94,29.84,5.0,Calm,Calm,-,0.01,Rain,Light Rain,0,2013-02-13 13:35:00
8:55 AM,43.0,41.5,95,29.84,5.0,Calm,Calm,-,0.01,,Overcast,0,2013-02-13 13:55:00
9:15 AM,43.2,41.5,94,29.84,4.0,SW,3.5,-,0.01,,Light Drizzle,220,2013-02-13 14:15:00
9:35 AM,43.2,41.7,95,29.84,5.0,Calm,Calm,-,0.01,,Overcast,0,2013-02-13 14:35:00
9:55 AM,43.3,41.9,95,29.82,2.5,Calm,Calm,-,0.01,,Light Drizzle,0,2013-02-13 14:55:00
10:15 AM,43.7,42.1,94,29.79,2.0,Calm,Calm,-,N/A,,Overcast,0,2013-02-13 15:15:00
10:35 AM,43.7,42.1,94,29.79,4.0,Calm,Calm,-,N/A,,Overcast,0,2013-02-13 15:35:00
10:55 AM,43.9,42.1,93,29.79,10.0,Calm,Calm,-,N/A,,Overcast,0,2013-02-13 15:55:00
11:15 AM,44.6,42.4,92,29.77,5.0,Calm,Calm,-,N/A,,Overcast,0,2013-02-13 16:15:00
11:35 AM,44.4,42.4,93,29.76,2.0,Calm,Calm,-,N/A,,Overcast,0,2013-02-13 16:35:00
11:55 AM,44.6,42.8,93,29.74,3.0,ENE,3.5,-,N/A,,Overcast,70,2013-02-13 16:55:00
12:15 PM,44.6,42.6,93,29.73,7.0,Calm,Calm,-,N/A,,Overcast,0,2013-02-13 17:15:00
12:35 PM,44.6,42.8,93,29.71,3.0,Calm,Calm,-,N/A,,Overcast,0,2013-02-13 17:35:00
12:55 PM,45.0,43.2,93,29.66,1.8,East,4.6,-,N/A,,Overcast,90,2013-02-13 17:55:00
1:15 PM,44.6,43.0,94,29.66,2.5,ENE,3.5,-,N/A,,Overcast,60,2013-02-13 18:15:00
1:35 PM,44.8,43.2,94,29.66,1.2,Calm,Calm,-,N/A,,Overcast,0,2013-02-13 18:35:00
1:55 PM,45.0,43.7,95,29.67,1.0,Calm,Calm,-,N/A,,Overcast,0,2013-02-13 18:55:00
2:15 PM,45.3,43.7,94,29.63,1.2,Calm,Calm,-,N/A,,Overcast,0,2013-02-13 19:15:00
2:35 PM,45.1,43.7,95,29.64,1.5,Calm,Calm,-,0.01,,Overcast,0,2013-02-13 19:35:00
2:55 PM,45.1,43.7,95,29.63,1.2,Calm,Calm,-,0.01,,Overcast,0,2013-02-13 19:55:00
3:15 PM,45.5,44.1,95,29.64,1.2,Calm,Calm,-,N/A,,Overcast,0,2013-02-13 20:15:00
3:35 PM,45.5,43.9,94,29.64,1.5,Calm,Calm,-,N/A,,Overcast,0,2013-02-13 20:35:00
3:55 PM,45.7,44.4,95,29.62,1.8,Calm,Calm,-,N/A,,Overcast,0,2013-02-13 20:55:00
4:15 PM,45.7,44.4,95,29.63,1.8,SSW,3.5,-,N/A,,Overcast,210,2013-02-13 21:15:00
4:35 PM,45.5,44.2,95,29.61,2.5,SSW,3.5,-,N/A,,Overcast,210,2013-02-13 21:35:00
4:55 PM,45.5,44.4,96,29.64,1.8,SW,4.6,-,N/A,,Overcast,230,2013-02-13 21:55:00
5:15 PM,45.5,44.2,95,29.64,1.8,WSW,3.5,-,N/A,,Overcast,240,2013-02-13 22:15:00
5:35 PM,45.5,44.2,95,29.65,2.0,Calm,Calm,-,N/A,,Overcast,0,2013-02-13 22:35:00
5:55 PM,45.5,44.1,95,29.65,1.8,Calm,Calm,-,N/A,,Overcast,0,2013-02-13 22:55:00
6:15 PM,45.3,43.9,95,29.66,3.0,WSW,4.6,-,N/A,,Overcast,250,2013-02-13 23:15:00
6:35 PM,45.5,44.1,95,29.67,2.5,WSW,4.6,-,N/A,,Overcast,240,2013-02-13 23:35:00
6:55 PM,45.5,44.1,95,29.69,4.0,WSW,5.8,-,N/A,,Overcast,250,2013-02-13 23:55:00
7:15 PM,45.5,44.1,95,29.68,5.0,WSW,4.6,-,N/A,,Overcast,250,2013-02-14 00:15:00
7:35 PM,45.5,44.1,95,29.69,10.0,WSW,4.6,-,N/A,,Overcast,240,2013-02-14 00:35:00
7:55 PM,45.5,44.1,95,29.69,10.0,WSW,6.9,-,N/A,,Overcast,250,2013-02-14 00:55:00
8:15 PM,45.5,43.9,94,29.69,10.0,WSW,8.1,-,N/A,,Overcast,240,2013-02-14 01:15:00
8:35 PM,45.3,43.7,94,29.70,10.0,WSW,5.8,-,N/A,,Overcast,240,2013-02-14 01:35:00
8:55 PM,45.5,43.5,93,29.70,10.0,West,6.9,-,N/A,,Light Drizzle,260,2013-02-14 01:55:00
9:15 PM,45.7,43.7,93,29.72,10.0,WSW,8.1,-,N/A,Rain,Light Rain,250,2013-02-14 02:15:00
9:35 PM,45.5,43.0,91,29.73,10.0,WSW,6.9,-,N/A,,Mostly Cloudy,250,2013-02-14 02:35:00
9:55 PM,45.1,41.4,87,29.75,10.0,West,11.5,16.1,N/A,,Scattered Clouds,280,2013-02-14 02:55:00
10:15 PM,44.4,38.8,81,29.75,10.0,West,8.1,-,N/A,,Clear,280,2013-02-14 03:15:00
10:35 PM,43.2,36.5,77,29.77,10.0,WNW,8.1,-,N/A,,Clear,290,2013-02-14 03:35:00
10:55 PM,42.4,35.1,75,29.78,10.0,WNW,6.9,-,N/A,,Clear,300,2013-02-14 03:55:00
11:15 PM,41.7,34.7,76,29.79,10.0,WNW,4.6,-,N/A,,Clear,290,2013-02-14 04:15:00
11:35 PM,41.2,34.2,76,29.80,10.0,WNW,5.8,-,N/A,,Clear,290,2013-02-14 04:35:00
11:55 PM,40.5,33.8,77,29.81,10.0,WNW,5.8,-,N/A,,Clear,290,2013-02-14 04:55:00